SM2FXT-13 Weather Reports


Display with metric or nautical units.
time (UTC)temp
F
wind
direction
speed
MPH
gust
MPH
rain 1hr
in
rain 24hr
in
rain mn
in
humidity
%
barometer
mb
20260506034003 36 288 1.0 4.0 0.00 0.01 0.00 78 1003.7
20260506033004 36 308 1.0 4.0 0.00 0.01 0.00 78 1003.7
20260506032003 36 304 2.0 7.0 0.00 0.01 0.00 78 1003.6
20260506031003 36 297 2.0 7.0 0.00 0.01 0.00 78 1003.3
20260506030006 35 270 2.0 5.0 0.00 0.01 0.00 79 1003.5
20260506025004 35 274 2.0 7.0 0.00 0.01 0.00 78 1003.3
20260506024003 35 279 2.0 8.0 0.00 0.01 0.00 78 1003.2
20260506022003 35 293 2.0 7.0 0.00 0.01 0.00 78 1003.2
20260506020004 35 277 2.0 7.0 0.00 0.01 0.00 77 1003.2
20260506015004 35 285 2.0 8.0 0.00 0.01 0.00 77 1003.1
20260506014003 35 261 2.0 8.0 0.00 0.01 0.00 77 1002.9
20260506012004 35 255 1.0 5.0 0.00 0.01 0.00 76 1002.7
20260506011003 35 271 3.0 7.0 0.00 0.01 0.00 75 1002.8
20260506004003 35 256 1.0 4.0 0.00 0.01 0.00 74 1002.5
20260506003004 35 265 2.0 7.0 0.00 0.01 0.00 74 1002.4
20260506002004 35 312 1.0 4.0 0.00 0.01 0.00 73 1002.5
20260506001003 35 279 1.0 3.0 0.00 0.01 0.00 73 1002.3
20260506000004 35 293 1.0 4.0 0.00 0.01 0.00 73 1002.3
20260505234003 35 302 1.0 4.0 0.00 0.01 0.00 73 1002.3
20260505233005 35 302 1.0 4.0 0.00 0.01 0.00 74 1002.2
20260505232002 35 270 1.0 3.0 0.00 0.01 0.00 73 1002.3
20260505231002 35 252 1.0 4.0 0.00 0.01 0.00 72 1002.2
20260505224002 36 255 1.0 4.0 0.00 0.01 0.00 71 1002.2
20260505223003 36 262 1.0 3.0 0.00 0.01 0.00 71 1002.2
20260505222002 36 291 1.0 3.0 0.00 0.01 0.00 72 1002.1
20260505221002 36 314 1.0 3.0 0.00 0.01 0.00 71 1002.1
20260505220005 36 315 1.0 3.0 0.00 0.01 0.00 72 1002.1
20260505215002 36 306 1.0 4.0 0.00 0.01 0.01 70 1002.0
20260505214002 36 324 1.0 3.0 0.00 0.01 0.01 70 1001.9
20260505213002 36 314 1.0 3.0 0.00 0.01 0.01 69 1001.9
20260505212002 36 315 0.0 1.0 0.00 0.01 0.01 68 1001.8
20260505211002 36 300 0.0 3.0 0.00 0.01 0.01 68 1001.8
20260505210003 36 315 0.0 1.0 0.00 0.01 0.01 66 1001.7
20260505205002 37 314 0.0 1.0 0.00 0.01 0.01 64 1001.7
20260505204002 38 305 0.0 3.0 0.00 0.01 0.01 62 1001.5
20260505203003 39 303 0.0 3.0 0.00 0.01 0.01 61 1001.5
20260505202002 40 270 1.0 4.0 0.00 0.01 0.01 59 1001.4
20260505201002 40 278 1.0 4.0 0.00 0.01 0.01 59 1001.3
20260505200003 41 245 2.0 7.0 0.00 0.01 0.01 58 1001.2
20260505194002 41 270 0.0 4.0 0.00 0.01 0.01 57 1001.1
20260505193004 41 276 0.0 3.0 0.00 0.01 0.01 56 1001.0
20260505192002 42 281 1.0 4.0 0.00 0.01 0.01 54 1001.0
20260505191002 43 266 2.0 7.0 0.00 0.01 0.01 53 1000.8
20260505190004 43 259 2.0 7.0 0.00 0.02 0.01 53 1000.9
20260505185002 44 240 2.0 8.0 0.00 0.02 0.01 52 1000.7
20260505184003 44 247 2.0 5.0 0.00 0.02 0.01 50 1000.6
20260505183003 44 259 1.0 4.0 0.00 0.02 0.01 48 1000.5
20260505182002 45 268 1.0 8.0 0.00 0.02 0.01 46 1000.4
20260505181002 46 268 2.0 9.0 0.00 0.02 0.01 45 1000.4
20260505180004 46 274 2.0 9.0 0.00 0.02 0.01 43 1000.4
20260505175003 47 285 2.0 7.0 0.00 0.02 0.01 42 1000.3
20260505174002 47 300 2.0 13.0 0.00 0.02 0.01 41 1000.2
20260505173003 47 273 2.0 15.0 0.00 0.02 0.01 43 1000.2
20260505172002 47 289 3.0 12.0 0.00 0.02 0.01 45 1000.0
20260505171003 48 312 2.0 7.0 0.00 0.02 0.01 45 1000.1
20260505170003 47 289 3.0 13.0 0.00 0.02 0.01 46 1000.1
20260505165002 46 280 3.0 11.0 0.00 0.02 0.01 46 1000.1
20260505164003 45 336 5.0 17.0 0.00 0.02 0.01 48 999.9
20260505162002 48 291 2.0 9.0 0.00 0.02 0.01 42 999.8
20260505153003 54 308 3.0 11.0 0.00 0.02 0.01 35 999.4
20260505152003 54 293 3.0 20.0 0.00 0.02 0.01 34 999.3
20260505151003 54 280 4.0 20.0 0.00 0.02 0.01 27 999.0
20260505125003 56 328 4.0 15.0 0.00 0.01 0.00 33 998.1
20260505124002 56 287 4.0 11.0 0.00 0.01 0.00 32 998.0
20260505123003 54 313 3.0 13.0 0.00 0.01 0.00 33 998.0
20260505122003 53 292 3.0 9.0 0.00 0.01 0.00 32 997.9
20260505121002 55 305 3.0 13.0 0.00 0.01 0.00 31 997.8
20260505120003 54 281 3.0 9.0 0.00 0.01 0.00 33 997.7
20260505115003 52 298 4.0 15.0 0.00 0.01 0.00 36 997.7
20260505113003 54 296 4.0 16.0 0.00 0.01 0.00 34 997.5
20260505112003 54 275 4.0 13.0 0.00 0.01 0.00 35 997.3
20260505111003 52 313 4.0 15.0 0.00 0.01 0.00 38 997.2
20260505101003 53 298 4.0 20.0 0.00 0.01 0.00 39 996.7
20260505100003 55 292 2.0 9.0 0.00 0.01 0.00 41 996.7
20260505095003 53 325 3.0 9.0 0.00 0.01 0.00 42 996.5
20260505094002 53 311 3.0 12.0 0.00 0.01 0.00 43 996.5
20260505093003 53 299 4.0 15.0 0.00 0.01 0.00 43 996.5
20260505092003 52 286 3.0 11.0 0.00 0.01 0.00 45 996.3
20260505091002 52 306 3.0 11.0 0.00 0.01 0.00 43 996.3
20260505090004 52 292 3.0 12.0 0.00 0.01 0.00 45 996.2
20260505085003 51 301 4.0 11.0 0.00 0.01 0.00 46 996.3
20260505084002 51 288 4.0 15.0 0.00 0.01 0.00 46 996.1
20260505083003 51 285 4.0 19.0 0.00 0.01 0.00 47 996.2
20260505081002 51 278 3.0 11.0 0.00 0.01 0.00 48 995.9
20260505080003 50 281 3.0 11.0 0.00 0.01 0.00 50 995.9
20260505075003 49 274 5.0 13.0 0.00 0.01 0.00 51 995.8
20260505074003 49 269 4.0 15.0 0.00 0.01 0.00 52 995.7
20260505073004 48 279 4.0 13.0 0.00 0.01 0.00 52 995.9
20260505072002 48 282 5.0 16.0 0.00 0.01 0.00 53 995.8
20260505071003 47 282 4.0 11.0 0.00 0.01 0.00 54 995.7
20260505070004 47 281 4.0 13.0 0.00 0.01 0.00 54 995.5
20260505065002 47 270 4.0 17.0 0.00 0.01 0.00 56 995.5
20260505064003 47 304 4.0 11.0 0.00 0.01 0.00 56 995.5
20260505061004 46 278 3.0 12.0 0.00 0.01 0.00 58 995.2
20260505060005 45 275 4.0 20.0 0.00 0.01 0.00 61 995.4
20260505055003 46 281 3.0 13.0 0.00 0.01 0.00 59 995.4
20260505054003 46 291 2.0 8.0 0.00 0.01 0.00 60 995.4
20260505053004 46 297 2.0 7.0 0.00 0.01 0.00 62 995.3
20260505052003 44 294 2.0 9.0 0.00 0.01 0.00 65 995.3
20260505051003 44 285 3.0 9.0 0.00 0.01 0.00 65 995.4
20260505041004 42 269 3.0 11.0 0.00 0.01 0.00 71 995.1
20260505040005 40 293 2.0 8.0 0.00 0.01 0.00 75 995.0